Location: Peach Mountain Observatory
(42.3967°N, 83.9367°W)
Time: 15:46:07
(UTC-05:00)

N. Korean satellite - Visible Passes

Search period start: 14 December 2019 00:00
Search period end: 24 December 2019 00:00
Orbit: 455 x 507 km, 97.2° (Epoch: 13 December)

Date Brightness Start Highest point End Pass type
(mag) Time Alt. Az. Time Alt. Az. Time Alt. Az.
14 Dec 7.5 06:11:46 10° NNE 06:15:10 47° E 06:18:30 10° S visible
14 Dec 9.1 18:21:06 10° SSW 18:24:11 25° W 18:27:18 10° NW visible
15 Dec 9.1 05:46:49 10° NE 05:49:37 22° E 05:52:22 10° SSE visible
15 Dec 7.8 07:20:14 10° NNW 07:22:55 21° WNW 07:25:32 10° WSW visible
15 Dec 7.5 17:55:04 10° S 17:58:41 53° W 18:02:17 10° NNW visible
16 Dec 10.0 05:23:03 10° ENE 05:23:58 11° E 05:24:52 10° ESE visible
16 Dec 6.8 06:54:18 10° N 06:57:37 42° WNW 07:00:52 10° SW visible
17 Dec 6.4 06:28:43 10° NNE 06:32:13 85° E 06:35:39 10° S visible
17 Dec 9.8 18:39:02 10° SW 18:41:22 16° W 18:43:41 10° NW visible
18 Dec 8.1 06:03:29 10° NNE 06:06:44 36° E 06:09:55 10° SSE visible
18 Dec 8.7 18:12:29 10° SSW 18:15:47 31° W 18:19:04 10° NNW visible
19 Dec 9.4 05:38:45 10° NE 05:41:09 17° E 05:43:31 10° SE visible
19 Dec 7.5 07:11:38 10° NNW 07:14:33 25° WNW 07:17:25 10° SW visible
19 Dec 7.0 17:46:38 10° S 17:50:17 68° WSW 17:53:55 10° NNW visible
20 Dec 6.5 06:45:49 10° N 06:49:13 54° WNW 06:52:33 10° SSW visible
21 Dec 6.8 06:20:21 10° NNE 06:23:47 64° E 06:27:10 10° S visible
21 Dec 9.6 18:30:12 10° SW 18:32:55 19° W 18:35:36 10° NW visible
22 Dec 8.6 05:55:14 10° NE 05:58:16 28° E 06:01:16 10° SSE visible
22 Dec 8.0 07:29:14 10° NNW 07:31:26 16° WNW 07:33:37 10° WSW visible
22 Dec 8.2 18:03:55 10° S 18:07:21 39° W 18:10:46 10° NNW visible
23 Dec 9.7 05:30:46 10° ENE 05:32:39 14° E 05:34:30 10° SE visible
23 Dec 7.1 07:03:03 10° N 07:06:09 32° WNW 07:09:13 10° SW visible
23 Dec 6.6 17:38:14 10° SSE 17:41:52 88° WSW 17:45:29 10° NNW visible
